This demonstration page uses our WeatherBlox Daily Observations layout. Learn more.

Left ArrowRight Arrow

39.92423, -83.80882

Hourly Observations for January 30, 2020

Temp ( °F °C ) Dew Point ( °F °C ) Humidity (%) Winds ( mph kmh ) Pressure ( in mb ) Visibility ( mi km ) Precip ( " mm )
12:56 am 00:56 Cloudy 30 -1.1 26 -3.3 85 85 NE 6 9 30.19 1022 10 16.0934 0 0
1:56 am 01:56 Cloudy 30 -1.1 25 -3.9 82 82 NE 5 7 30.18 1022 10 16.0934 0 0
2:56 am 02:56 Cloudy 30 -1.1 26 -3.3 85 85 NE 5 7 30.19 1022 10 16.0934 0 0
3:56 am 03:56 Cloudy 30 -1.1 27 -2.8 88 88 NE 7 11 30.18 1022 10 16.0934 0 0
4:56 am 04:56 Cloudy 30 -1.1 27 -2.8 88 88 NE 6 9 30.19 1022 10 16.0934 0 0
5:56 am 05:56 Cloudy 29 -1.7 27 -2.8 92 92 NE 8 13 30.18 1022 10 16.0934 0 0
6:56 am 06:56 Cloudy 29 -1.7 26 -3.3 89 89 NE 7 11 30.2 1023 10 16.0934 0 0
7:56 am 07:56 Cloudy 29 -1.7 26 -3.3 89 89 E 5 7 30.22 1023 10 16.0934 0 0
8:56 am 08:56 Cloudy 30 -1.1 25 -3.9 82 82 Calm 30.24 1024 10 16.0934 0 0
9:56 am 09:56 Cloudy 30 -1.1 25 -3.9 82 82 Calm 30.26 1025 10 16.0934 0 0
10:56 am 10:56 Cloudy 31 -0.6 26 -3.3 82 82 NNE 3 6 30.27 1025 10 16.0934 0 0
11:56 am 11:56 Cloudy 32 0 26 -3.3 79 79 ENE 6 9 30.25 1024 10 16.0934 0 0
12:56 pm 12:56 Cloudy 33 0.6 25 -3.9 72 72 Calm 30.23 1024 10 16.0934 0 0
1:56 pm 13:56 Cloudy 33 0.6 23 -5 66 66 Calm 30.2 1023 10 16.0934 0 0
2:47 pm 14:47 Cloudy 34 1 25 -4 70 70 SSW 3 6 30.22 1023 10 16.0934 0 0
2:56 pm 14:56 Cloudy 33 0.6 23 -5 66 66 Calm 30.2 1023 10 16.0934 0 0
3:56 pm 15:56 Cloudy 33 0.6 25 -3.9 72 72 SE 3 6 30.21 1023 10 16.0934 0 0
4:56 pm 16:56 Cloudy 33 0.6 24 -4.4 70 70 Calm 30.22 1023 10 16.0934 0 0
5:38 pm 17:38 Cloudy 32 0 25 -4 75 75 E 3 6 30.24 1024 10 16.0934 0 0
5:56 pm 17:56 Cloudy 32 0 26 -3.3 79 79 E 5 7 30.23 1024 10 16.0934 0 0
6:56 pm 18:56 Cloudy 32 0 27 -2.8 82 82 E 3 6 30.25 1024 10 16.0934 0 0
7:56 pm 19:56 Cloudy 31 -0.6 27 -2.8 85 85 NE 6 9 30.25 1024 10 16.0934 0 0
8:56 pm 20:56 Cloudy 31 -0.6 28 -2.2 89 89 E 6 9 30.26 1025 10 16.0934 0 0
9:56 pm 21:56 Cloudy 30 -1.1 27 -2.8 88 88 E 8 13 30.25 1024 10 16.0934 0 0
10:56 pm 22:56 Mostly Cloudy 28 -2.2 27 -2.8 96 96 E 6 9 30.24 1024 10 16.0934 0 0
11:56 pm 23:56 Cloudy 29 -1.7 27 -2.8 92 92 ESE 6 9 30.24 1024 10 16.0934 0 0

Powered by AerisWeather